User: anonymous   Login
Location: Unspecified
(0.0000°N, 0.0000°E)
Time: 20:41:41
(UTC+00:00)
Language:

UHF F/O F4 - Orbit

View from above orbital plane
View from above orbital plane
View from above satellite
View from above satellite

Ground track
Ground track

The orbit data is extracted from the following two-line orbital elements,

1 23467U 95003A   17075.87083412 0.00000000  00000-0  00000-0 0    05
2 23467   9.5225  28.2200 0008115 252.3374 107.5817  1.00270000    01
Epoch (UTC): 16 March 2017 20:54:00
Eccentricity: 0.0008115
inclination: 9.5225°
perigee height: 35752 km
apogee height: 35821 km
right ascension of ascending node: 28.2200°
argument of perigee: 252.3374°
revolutions per day: 1.00270000
mean anomaly at epoch: 107.5817°
orbit number at epoch: 0

The dashed part of the orbit path shows where the satellite is in the earth's shadow,  

DLR